Main page
METAR-TAF:

METAR-TAF

Airports :

Quentin Aanenson Field

Luverne, Minnesota, United States

latitude: 43-37-16N, longitude: 096-12-58W, elevation: 1430 ft

Current weather observation

The report was made 29 minutes ago, at 13:55 UTC
Calm wind
Temperature 19°F
Humidity 93%
Pressure 30.00 in. Hg
Visibility: 5 miles
Clear sky
mist

METAR: KLYV 221355Z AUTO 00000KT 5SM BR CLR M07/M08 A3000 RMK AO2

Time: 08:24 (14:24 UTC)


TAF: missing

Weather observations and forecasts of more than 4000 airports (METAR and TAF reports).

The available stations are represented by yellow and red dots on the map.

Hover mouse over dot to see the name of the station.

Then click to see weather observations and forecasts.

To change the map : click on the green buttons with a black cross to zoom in, on the green button with a dash to zoom out, or on the green arrows for adjacent maps.


METAR-TAF: